Location: Sobotiste
(48.7170°N, 17.4000°E)
Time: 08:44:56
(UTC+02:00)

YUBILEINY - Pass Details

Date: 13 March 2026
Orbit: 1477 x 1509 km, 82.5° (Epoch: 17 April)

Event Time Altitude Azimuth Distance (km) Brightness Sun altitude
Rises 05:34:51 0° 342° (NNW) 4,623 ? -6.3°
Reaches altitude 10° 05:38:52 10° 325° (NW) 3,634 ? -5.7°
Maximum altitude 05:44:09 18° 287° (WNW) 3,031 ? -4.8°
Drops below altitude 10° 05:49:26 10° 249° (WSW) 3,614 ? -3.9°
Sets 05:53:26 0° 232° (SW) 4,587 ? -3.3°
